Sitka, AK

3:16 PM AKDT on June 28, 2017 (GMT -0800)
Sitka Rocky Gutierrez

Weather History for PASI - December, 2013

Change the Weather History Date:

Tuesday, December 31, 2013

  Actual Average Record
Temperature  
Mean Temperature 42 °F -  
Max Temperature 46 °F 39 °F 53 °F (2001)
Min Temperature 37 °F 31 °F 2 °F (1949)
Degree Days  
Heating Degree Days 24    
Moisture  
Dew Point 39 °F    
Average Humidity 89    
Maximum Humidity 100    
Minimum Humidity 71    
Precipitation  
Precipitation 0.11 in - - ()
Sea Level Pressure  
Sea Level Pressure 29.91 in    
Wind  
Wind Speed 10 mph (SE)    
Max Wind Speed 17 mph    
Max Gust Speed 25 mph    
Visibility 9 miles    
Events Fog , Rain    
Averages and records for this station are not official NWS values.
T = Trace of Precipitation, MM = Missing Value Source: NWS Daily Summary

Daily Weather History Graph

Daily Weather History Graph

Search for Another Location

Airport or City:

Trip Planner

Search our weather history database for the weather conditions in past years. The results will help you decide how hot, cold, wet, or windy it might be!

Date:

Astronomy

Dec. 31, 2013 Rise Set
Actual Time 8:40 AM AKST 3:29 PM AKST
Civil Twilight 7:50 AM AKST 4:18 PM AKST
Nautical Twilight 7:00 AM AKST 5:09 PM AKST
Astronomical Twilight 6:13 AM AKST 5:56 PM AKST
Moon 7:29 AM AKST (12/31) 3:25 PM AKST (12/31)
Length of Visible Light 8h 27m
Length of Day
6h 49m
Waning Crescent, 1% of the Moon is Illuminated
Dec 31
Waning Crescent
Jan 1
New
Jan 7
First Quarter
Jan 15
Full
Jan 23
Last Quarter

Hourly Weather History & Observations

Time (AKST) Temp. Windchill Dew Point Humidity Pressure Visibility Wind Dir Wind Speed Gust Speed Precip Events Conditions
12:05 AM 39.9 °F 32.1 °F 37.0 °F 89% 29.82 in 5.0 mi ESE 13.8 mph - 0.02 in Rain Light Rain
12:53 AM 43.0 °F 35.4 °F 41.0 °F 93% 29.82 in 10.0 mi South 16.1 mph 25.3 mph 0.05 in Rain Light Rain
1:53 AM 43.0 °F 36.0 °F 42.1 °F 97% 29.83 in 4.0 mi South 13.8 mph 23.0 mph 0.02 in Rain Light Rain
2:09 AM 43.0 °F 36.8 °F 43.0 °F 100% 29.83 in 2.5 mi South 11.5 mph - 0.02 in Rain Light Rain
2:19 AM 44.1 °F 37.4 °F 43.0 °F 96% 29.83 in 3.0 mi SSW 13.8 mph 25.3 mph 0.04 in Rain Light Rain
2:36 AM 43.0 °F 35.1 °F 42.1 °F 97% 29.84 in 1.8 mi SW 17.3 mph 24.2 mph 0.08 in Rain Light Rain
2:43 AM 42.1 °F 36.1 °F 39.9 °F 92% 29.85 in 2.5 mi WSW 10.4 mph 24.2 mph 0.09 in Rain Light Rain
2:50 AM 42.8 °F 36.6 °F 39.2 °F 87% 29.85 in 6.0 mi WSW 11.5 mph - 0.09 in Rain Light Rain
3:05 AM 43.0 °F 37.7 °F 41.0 °F 93% 29.86 in 10.0 mi West 9.2 mph - 0.00 in   Overcast
3:48 AM 44.6 °F 39.7 °F 39.2 °F 81% 29.87 in 10.0 mi WSW 9.2 mph - 0.00 in   Partly Cloudy
3:53 AM 43.0 °F 37.7 °F 39.9 °F 89% 29.87 in 10.0 mi WSW 9.2 mph - 0.00 in   Partly Cloudy
4:53 AM 43.0 °F 41.3 °F 39.0 °F 86% 29.90 in 9.0 mi SW 3.5 mph - N/A   Scattered Clouds
5:53 AM 39.9 °F 36.7 °F 39.0 °F 97% 29.91 in 10.0 mi East 4.6 mph - N/A Fog Mostly Cloudy
6:25 AM 39.0 °F 35.7 °F 37.9 °F 96% 29.92 in 10.0 mi East 4.6 mph - N/A Fog Overcast
6:36 AM 39.0 °F 34.8 °F 37.9 °F 96% 29.92 in 10.0 mi East 5.8 mph - N/A   Overcast
6:53 AM 39.0 °F 34.8 °F 37.9 °F 96% 29.93 in 9.0 mi East 5.8 mph - N/A   Overcast
7:53 AM 39.0 °F 34.0 °F 37.9 °F 96% 29.94 in 10.0 mi ESE 6.9 mph - N/A   Overcast
8:37 AM 39.0 °F 35.7 °F 37.9 °F 96% 29.95 in 10.0 mi ESE 4.6 mph - N/A   Overcast
8:53 AM 39.0 °F 34.0 °F 37.9 °F 96% 29.96 in 9.0 mi East 6.9 mph - N/A   Mostly Cloudy
9:23 AM 39.0 °F 34.8 °F 37.0 °F 93% 29.97 in 10.0 mi East 5.8 mph - N/A   Overcast
9:53 AM 37.9 °F 33.5 °F 37.0 °F 97% 29.99 in 10.0 mi ESE 5.8 mph - N/A   Overcast
10:53 AM 39.9 °F 34.5 °F 36.0 °F 86% 29.98 in 10.0 mi ESE 8.1 mph - N/A   Overcast
11:53 AM 41.0 °F 36.4 °F 37.0 °F 86% 30.00 in 9.0 mi ESE 6.9 mph - 0.00 in Rain Light Rain
12:04 PM 41.0 °F 37.1 °F 37.9 °F 89% 30.00 in 10.0 mi ESE 5.8 mph - 0.00 in Rain Light Rain
12:53 PM 41.0 °F 35.8 °F 37.9 °F 89% 30.01 in 10.0 mi East 8.1 mph - 0.00 in   Overcast
1:53 PM 41.0 °F 38.0 °F 37.9 °F 89% 29.99 in 10.0 mi SE 4.6 mph - N/A   Overcast
2:53 PM 42.1 °F - 39.0 °F 89% 29.98 in 10.0 mi Calm Calm - 0.00 in Rain Light Rain
3:53 PM 42.1 °F 37.7 °F 39.0 °F 89% 29.96 in 10.0 mi East 6.9 mph - 0.00 in   Overcast
4:53 PM 45.0 °F 38.5 °F 37.0 °F 74% 29.94 in 10.0 mi East 13.8 mph - N/A   Mostly Cloudy
5:53 PM 46.0 °F 40.2 °F 37.0 °F 71% 29.93 in 10.0 mi ESE 12.7 mph - 0.00 in Rain Light Rain
6:53 PM 46.0 °F 39.9 °F 37.9 °F 73% 29.91 in 10.0 mi ESE 13.8 mph - 0.01 in Rain Light Rain
7:53 PM 46.0 °F 39.9 °F 37.9 °F 73% 29.90 in 10.0 mi ESE 13.8 mph - 0.00 in Rain Light Rain
8:53 PM 44.1 °F 39.0 °F 39.9 °F 85% 29.89 in 10.0 mi SSE 9.2 mph - 0.00 in   Overcast
9:53 PM 44.1 °F 39.5 °F 39.9 °F 85% 29.88 in 10.0 mi SE 8.1 mph - 0.01 in Rain Light Rain
10:53 PM 44.1 °F 38.6 °F 39.0 °F 82% 29.85 in 10.0 mi SE 10.4 mph - 0.00 in Rain Light Rain
11:53 PM 45.0 °F 39.3 °F 39.9 °F 82% 29.82 in 10.0 mi SE 11.5 mph - 0.02 in Rain Light Rain